Temperature
16 15 15 15 15 14 14 14 14 14 14 14 13 13 13 13 13 13 13 13 13 13 13 13 13 13 13 13 13 13 13 13 14 14 14 14 14 14 14 14 14 15 15
16 15 15 15 15 15 15 14 14 14 14 14 14 14 14 13 13 13 13 13 13 13 13 13 13 13 13 13 13 13 13 13 13 13 14 14 14 14 14 14 14 14 15
16 16 15 15 15 15 15 15 14 14 14 14 14 14 14 14 13 13 13 13 13 13 13 13 13 13 13 13 12 13 13 13 13 13 13 13 13 13 13 14 14 14 14
16 16 16 16 15 15 15 15 15 15 15 14 14 14 14 14 14 14 13 13 13 13 13 13 13 13 13 13 12 12 12 13 13 13 13 13 13 13 13 13 13 14 14
16 16 16 16 16 15 15 15 15 15 15 15 14 14 14 14 14 14 14 13 13 13 13 13 13 13 13 13 13 13 12 12 12 12 13 13 13 13 13 13 13 13 13
17 16 16 16 16 16 15 15 15 15 15 15 15 14 14 14 14 14 14 14 13 13 13 13 13 13 13 13 13 13 13 12 12 12 12 12 12 12 12 13 13 13 13
17 16 16 16 16 16 15 15 15 15 15 15 15 14 14 14 14 14 14 14 14 13 13 13 13 13 13 13 13 12 12 12 12 12 12 12 12 12 12 12 12 12 13
17 17 16 16 16 16 16 15 16 15 15 15 15 15 15 14 14 14 14 14 14 14 13 13 13 13 13 13 12 12 12 12 12 12 12 12 12 12 12 12 12 12 13
18 17 17 17 16 16 16 16 16 15 15 15 15 15 15 14 14 14 14 14 14 14 14 13 13 13 13 13 13 12 12 12 12 12 12 12 12 12 12 12 12 12 12
18 18 17 17 16 16 16 16 16 15 15 15 15 15 14 14 14 14 14 14 14 14 13 13 13 13 13 13 13 12 12 12 12 12 12 12 12 12 12 12 12 12 11
19 18 18 17 17 16 16 16 16 15 15 15 15 15 14 14 14 14 14 14 13 13 13 13 13 13 13 13 13 12 12 12 12 12 12 12 12 12 12 12 11 11 11
19 18 18 17 17 16 16 16 16 16 15 15 15 14 14 14 14 14 13 13 13 13 13 13 13 13 13 13 12 12 12 12 12 12 11 11 11 11 11 11 11 11 11
19 19 18 17 17 17 16 16 16 16 15 15 14 14 14 14 13 13 13 13 13 13 13 13 12 12 12 12 12 12 12 12 11 11 11 11 11 11 11 11 11 11 11
19 19 18 17 17 17 16 16 16 15 15 14 14 14 13 13 13 13 12 12 12 12 12 12 12 12 12 12 11 11 11 11 11 11 10 10 10 10 10 10 11 11 11
19 18 18 17 17 16 16 16 15 15 15 15 14 14 13 13 13 12 12 12 12 12 11 11 11 11 11 11 11 10 10 10 10 10 10 10 10 10 10 10 10 10 10
19 18 17 17 16 16 16 16 15 15 15 15 14 14 13 13 12 12 12 12 12 11 11 11 10 10 10 10 10 10 10 10 10 9 9 9 9 9 9 9 9 9 9
18 18 17 17 16 16 16 16 16 15 15 14 14 13 13 12 12 12 11 11 11 11 10 10 10 10 10 9 9 9 9 9 9 9 9 8 8 8 8 8 8 8 8
18 17 17 17 16 16 16 16 16 15 15 14 13 13 12 12 12 11 11 11 10 10 10 9 9 9 9 9 9 8 8 8 8 8 7 7 7 7 7 7 7 6 6
17 17 17 16 16 16 16 15 15 15 14 14 13 12 12 11 11 11 10 10 10 9 9 8 8 8 8 8 8 7 7 7 7 6 6 6 6 6 6 5 5 5 5
16 16 16 16 16 15 15 15 14 14 13 13 13 12 12 11 10 10 9 9 9 8 8 8 8 7 7 7 7 6 6 6 6 5 5 5 5 5 5 4 4 4 4
15 16 16 15 15 15 14 14 14 13 13 12 12 12 11 10 10 9 9 8 8 8 7 7 7 7 6 6 6 5 5 5 5 5 4 4 4 4 4 4 3 3 3
14 15 15 14 14 14 14 13 13 13 12 12 11 10 10 9 9 8 8 8 7 7 7 6 6 6 6 5 5 5 4 4 4 4 4 4 3 3 3 3 2 2 2
13 14 13 13 13 13 13 13 12 12 11 11 11 10 9 8 8 8 7 7 7 6 6 6 5 5 5 4 4 4 4 4 3 3 3 3 3 3 2 2 2 2 1
12 13 12 12 12 12 12 12 12 11 11 10 10 10 9 8 8 7 7 6 6 6 5 5 5 4 4 4 4 3 3 3 3 3 3 2 2 2 2 1 1 1 0
11 11 11 12 12 12 12 11 11 10 10 9 9 9 8 7 7 6 6 6 5 5 5 4 4 4 3 3 3 3 3 3 3 2 2 2 2 2 1 1 0 0 -0
10 10 11 11 11 11 11 10 10 10 9 9 8 8 7 7 6 6 5 5 5 4 4 4 3 3 3 3 3 3 3 2 2 2 2 2 2 1 1 0 -0 -1 -1
Wind_Speed
7 6 5 5 4 4 3 2 1 3 2 2 0 2 1 1 2 2 1 2 3 2 1 1 1 1 1 2 2 1 1 0 1 3 2 2 1 1 0 2 3 5 8
7 6 6 6 5 4 5 4 4 3 1 1 2 1 1 1 2 2 1 1 1 2 2 2 1 2 1 1 1 2 1 1 1 2 3 2 2 2 1 2 3 5 5
7 6 6 6 6 5 5 6 4 2 2 2 3 2 1 1 1 1 1 1 1 1 0 1 2 2 1 1 0 1 2 1 0 1 3 2 2 2 1 3 4 3 4
8 7 6 6 6 5 4 5 4 3 3 2 1 1 1 1 1 1 1 1 2 1 1 1 1 2 3 3 2 3 2 2 2 2 2 2 2 2 1 2 3 3 3
10 9 7 6 6 5 4 4 3 2 3 3 2 2 0 1 1 3 4 3 3 3 1 1 3 5 4 2 2 2 3 2 2 2 2 2 2 2 1 1 2 3 4
10 9 8 7 7 7 6 6 5 4 3 2 2 2 1 1 5 4 2 4 5 3 2 1 4 5 4 3 2 2 1 1 2 2 2 3 3 2 1 2 2 2 3
10 10 9 8 7 7 7 6 6 5 4 3 3 3 3 3 6 5 3 2 5 5 4 1 0 3 4 2 3 4 5 5 5 2 3 3 3 3 2 2 2 3 3
11 10 10 9 8 7 6 6 6 5 5 5 5 4 4 5 9 8 6 4 5 6 4 2 1 2 2 1 1 2 3 3 5 4 3 3 2 2 2 2 3 4 5
12 11 10 10 9 8 8 7 6 6 6 5 5 6 6 5 9 10 7 4 5 6 4 2 2 3 3 2 2 3 3 3 4 5 6 6 7 6 3 2 3 3 4
11 11 10 10 10 9 8 7 5 5 5 4 5 6 7 6 9 11 9 4 5 4 3 3 4 5 5 3 0 2 3 4 4 3 4 6 6 6 7 4 3 3 3
11 10 10 10 10 9 7 6 4 4 4 5 4 5 6 6 8 11 10 4 3 3 2 2 3 7 6 4 1 0 1 4 5 5 4 4 3 2 2 2 3 3 3
11 11 10 9 8 8 7 6 4 4 4 4 4 5 4 4 6 9 10 8 4 2 2 1 1 6 6 5 2 1 3 4 3 4 3 3 2 2 2 1 2 2 3
11 11 10 9 7 7 8 7 5 4 4 4 4 3 2 2 4 7 8 7 6 3 1 1 3 4 3 3 3 2 2 2 2 2 3 3 3 3 3 3 4 4 4
12 11 9 9 8 7 6 6 5 4 4 4 2 2 2 3 4 2 0 2 3 3 3 3 4 4 1 1 2 1 0 1 2 2 3 3 4 4 4 4 4 4 4
11 11 10 9 9 8 5 3 4 3 3 3 2 2 3 3 3 3 2 1 0 1 1 3 3 2 1 1 1 2 2 3 3 3 3 4 4 4 4 4 4 4 4
11 11 9 8 8 9 9 6 10 7 9 9 8 6 5 6 5 5 4 3 1 1 2 2 2 2 3 3 3 3 3 3 3 3 3 3 3 4 4 4 4 4 4
11 10 9 9 10 10 10 10 7 6 8 9 9 10 9 7 6 5 4 4 5 6 5 4 4 4 4 4 3 3 2 2 2 2 3 3 3 3 4 4 4 4 4
11 12 11 9 10 10 10 10 10 10 7 4 5 8 9 8 6 5 3 3 4 5 4 5 4 4 4 3 3 3 2 2 2 2 2 3 3 3 3 4 4 4 4
9 8 9 10 10 10 10 10 10 11 9 8 6 5 7 7 6 4 3 3 5 5 5 4 4 4 4 4 3 2 2 2 2 2 2 3 3 3 3 4 4 6 5
8 12 11 10 10 10 10 10 10 10 10 10 10 8 7 6 5 4 3 4 5 5 5 5 4 4 4 3 2 1 1 1 2 2 2 2 3 3 4 5 5 5 4
6 9 13 11 10 10 10 10 10 10 10 10 9 10 12 7 7 7 6 5 5 5 5 5 4 4 3 3 2 1 1 2 2 2 2 3 3 4 4 4 5 5 5
6 7 9 9 9 9 10 10 10 10 11 11 9 9 13 7 7 6 6 6 6 5 5 5 4 4 3 3 2 2 2 3 3 4 4 4 4 4 5 5 5 5 6
6 8 8 8 8 11 11 9 10 10 10 11 11 10 8 7 7 7 7 6 6 6 5 5 4 4 3 3 3 3 3 3 4 4 4 4 4 5 5 6 7 8 7
7 8 9 9 9 9 10 10 10 10 11 11 11 10 9 7 8 8 7 7 6 6 5 4 4 4 4 3 5 7 7 7 7 5 5 5 5 5 5 6 7 8 8
7 7 8 9 9 10 10 10 10 11 11 11 11 10 9 9 8 8 7 7 7 6 6 5 4 4 5 6 7 8 9 8 7 5 5 4 6 6 7 7 7 8 9
6 7 7 7 8 9 10 10 10 11 10 10 10 10 9 9 8 8 7 7 6 6 5 4 5 6 7 8 10 10 8 5 3 4 6 5 6 6 7 7 10 9 10
Wind_Direction
184 189 191 174 174 178 186 151 230 258 219 184 203 334 1 56 82 81 3 22 359 349 355 79 91 99 40 341 346 345 333 130 260 304 327 338 336 307 220 276 272 240 239
183 184 192 176 180 203 177 175 215 235 286 163 131 300 328 54 72 75 347 341 327 341 348 13 25 77 67 343 1 340 315 263 213 286 312 327 325 312 292 276 271 263 252
177 193 195 183 186 202 187 170 207 198 227 244 168 207 218 109 147 194 218 274 276 248 276 25 29 57 20 6 6 310 307 311 268 268 287 301 295 295 317 297 287 284 278
174 195 201 191 189 197 189 164 198 190 192 261 266 217 192 107 38 356 357 346 313 300 173 147 108 69 45 16 5 355 350 351 335 304 285 288 286 287 280 281 302 301 293
174 190 202 196 187 185 177 166 191 218 207 189 242 269 256 112 65 43 8 337 326 319 299 144 130 126 112 81 30 357 356 347 328 309 297 299 295 308 286 272 286 287 281
177 186 191 198 189 180 186 177 188 214 230 189 212 227 247 127 126 106 44 330 323 316 301 169 149 148 158 177 213 246 265 287 304 315 304 300 296 300 308 301 294 310 298
184 186 184 190 193 183 190 183 188 204 216 213 224 224 214 186 173 177 195 268 295 301 307 320 130 142 153 187 240 242 245 242 239 255 286 289 299 314 327 319 309 294 273
189 188 181 180 186 182 187 190 195 204 207 206 214 220 223 213 198 200 206 234 261 269 275 272 239 136 118 89 302 273 255 237 231 233 243 268 290 316 317 294 284 286 279
190 184 178 175 179 182 191 200 203 204 208 204 201 209 221 220 202 200 195 235 252 248 241 227 167 132 120 74 354 315 310 302 246 232 233 250 264 274 266 291 289 290 293
182 178 175 173 176 183 190 198 200 197 204 212 217 209 213 210 200 198 196 228 256 250 221 182 155 145 142 122 30 333 333 330 336 324 281 268 258 258 246 220 236 269 292
169 168 171 173 173 175 180 185 188 187 196 216 232 226 212 208 196 193 190 211 259 285 275 203 161 154 153 156 154 5 313 322 324 318 305 296 285 267 233 219 223 228 253
159 163 167 168 172 171 164 169 176 180 194 216 234 244 226 193 167 183 191 208 240 286 308 349 143 161 167 176 179 254 319 329 307 303 309 324 342 347 344 336 296 267 249
157 161 162 162 165 158 156 166 176 181 194 215 219 214 196 133 139 167 192 214 229 225 241 104 150 167 164 183 212 253 308 317 316 327 342 352 352 351 350 339 328 312 291
162 165 165 167 163 156 154 165 172 181 189 199 192 164 128 96 79 68 113 221 221 214 214 177 161 150 128 99 137 210 266 34 26 13 1 356 357 1 358 353 344 338 331
169 171 174 173 165 160 139 104 134 102 124 135 118 102 104 102 80 66 64 38 337 213 178 148 141 139 151 135 99 80 60 49 39 19 10 6 5 2 356 353 352 344 338
177 180 178 173 165 154 139 104 65 95 96 95 101 109 93 104 112 96 85 76 76 107 119 128 125 117 107 91 82 73 63 53 38 26 22 15 2 354 350 350 354 356 348
186 183 178 174 169 163 159 153 140 98 82 91 102 110 121 129 119 114 100 76 70 91 97 94 90 87 88 86 82 79 68 50 41 32 23 16 7 358 357 353 352 353 347
193 188 179 175 171 171 170 167 163 160 155 138 115 128 135 139 140 145 140 100 84 83 96 103 103 100 97 92 85 77 68 49 42 29 20 16 7 356 352 348 344 345 335
199 189 182 176 173 174 170 167 166 164 159 153 145 148 156 151 149 154 144 129 125 119 114 111 108 104 99 93 86 72 64 56 36 25 23 16 3 356 350 343 336 336 335
206 196 183 175 174 174 172 171 169 166 163 162 165 165 167 166 161 156 147 136 129 124 122 119 114 109 104 101 98 83 45 40 37 34 27 16 6 0 346 337 331 327 323
207 194 187 183 181 179 177 177 173 168 167 165 163 163 167 170 162 155 153 144 137 134 130 125 122 118 112 106 95 65 47 49 49 37 23 12 4 350 334 325 322 321 318
215 197 192 191 185 180 178 175 171 168 164 155 146 152 161 161 151 148 147 144 135 129 128 127 124 123 120 112 90 60 46 41 39 35 21 5 354 340 332 326 323 322 320
219 205 197 192 185 179 176 173 169 166 161 155 153 157 164 160 152 149 147 141 134 131 129 128 129 129 126 111 95 83 71 56 44 34 14 354 340 330 324 319 317 316 315
223 208 200 191 183 181 177 172 168 165 161 158 159 161 164 158 152 148 143 138 136 134 134 133 132 130 122 108 95 88 82 71 51 33 15 343 322 311 310 308 306 305 306
229 213 202 192 184 180 175 169 166 164 162 161 161 161 160 154 149 145 142 140 138 138 139 135 132 125 113 104 105 106 100 84 65 28 348 320 308 304 302 301 301 301 301
234 217 203 190 181 175 171 168 166 163 162 161 158 155 153 149 146 143 140 138 137 137 134 129 123 116 110 105 111 116 111 92 51 356 325 299 295 295 301 299 300 299 297
Height
1493 1494 1495 1496 1497 1497 1497 1497 1497 1498 1498 1498 1498 1497 1497 1497 1496 1496 1495 1495 1495 1495 1495 1495 1495 1495 1495 1496 1496 1497 1497 1498 1499 1499 1500 1501 1501 1502 1502 1502 1503 1503 1504
1490 1492 1493 1494 1495 1496 1496 1496 1496 1497 1497 1497 1497 1497 1497 1497 1496 1496 1495 1495 1494 1494 1495 1495 1495 1495 1495 1495 1495 1495 1496 1497 1497 1498 1498 1499 1499 1499 1499 1499 1500 1500 1500
1488 1490 1491 1492 1493 1494 1495 1495 1496 1496 1496 1497 1497 1497 1497 1496 1496 1495 1495 1495 1495 1495 1494 1494 1494 1494 1494 1494 1494 1494 1495 1495 1496 1496 1496 1496 1497 1497 1497 1497 1497 1497 1497
1484 1487 1489 1490 1491 1493 1494 1494 1494 1495 1495 1496 1496 1496 1496 1496 1495 1495 1495 1495 1494 1495 1494 1494 1494 1493 1493 1493 1493 1493 1493 1494 1494 1494 1494 1494 1494 1494 1494 1494 1494 1494 1494
1481 1483 1486 1488 1489 1490 1491 1492 1493 1493 1494 1494 1495 1495 1495 1495 1494 1494 1494 1494 1494 1494 1494 1494 1493 1493 1492 1492 1492 1492 1492 1492 1492 1492 1492 1492 1492 1492 1492 1491 1491 1491 1491
1477 1480 1482 1484 1486 1488 1489 1490 1491 1491 1492 1493 1493 1493 1493 1493 1493 1493 1492 1492 1492 1493 1493 1493 1492 1492 1492 1491 1491 1491 1491 1490 1490 1490 1490 1490 1490 1490 1489 1489 1489 1488 1487
1474 1476 1479 1481 1483 1485 1486 1487 1488 1489 1490 1490 1490 1491 1491 1491 1491 1491 1491 1491 1490 1491 1491 1492 1492 1491 1490 1490 1490 1490 1489 1489 1489 1489 1488 1488 1487 1487 1487 1486 1486 1485 1485
1470 1472 1475 1477 1479 1481 1483 1484 1485 1486 1487 1487 1488 1488 1488 1489 1489 1489 1489 1489 1489 1489 1490 1490 1490 1489 1489 1489 1488 1488 1488 1487 1487 1487 1486 1486 1485 1485 1484 1484 1483 1483 1482
1465 1468 1470 1473 1475 1477 1479 1480 1482 1483 1484 1484 1485 1485 1485 1486 1486 1486 1486 1486 1486 1487 1487 1487 1488 1487 1487 1487 1487 1486 1486 1485 1485 1485 1484 1484 1483 1483 1482 1481 1481 1480 1478
1460 1464 1466 1469 1471 1473 1475 1477 1478 1479 1480 1481 1481 1482 1482 1482 1482 1483 1483 1483 1483 1484 1485 1485 1485 1485 1485 1485 1484 1484 1483 1483 1483 1482 1482 1482 1481 1481 1480 1479 1479 1478 1477
1456 1459 1462 1465 1467 1469 1471 1473 1474 1475 1476 1477 1477 1478 1478 1478 1479 1479 1480 1480 1480 1481 1482 1482 1482 1482 1482 1482 1482 1482 1482 1481 1481 1480 1480 1480 1479 1479 1478 1477 1477 1476 1475
1452 1455 1458 1460 1463 1465 1467 1468 1470 1471 1472 1473 1473 1474 1474 1474 1474 1475 1475 1476 1476 1477 1478 1478 1479 1479 1480 1480 1480 1480 1480 1479 1479 1478 1478 1478 1478 1477 1476 1475 1474 1474 1473
1447 1449 1453 1455 1458 1460 1462 1463 1465 1466 1467 1468 1469 1470 1470 1470 1470 1471 1471 1472 1472 1473 1473 1474 1475 1476 1476 1477 1477 1477 1477 1477 1477 1476 1476 1476 1475 1475 1474 1473 1471 1470 1469
1442 1444 1447 1450 1453 1455 1457 1458 1460 1461 1462 1463 1464 1465 1466 1466 1466 1466 1467 1467 1468 1469 1469 1470 1471 1472 1473 1474 1474 1475 1475 1475 1474 1474 1474 1474 1473 1472 1471 1470 1468 1467 1466
1437 1439 1442 1444 1447 1449 1451 1453 1454 1456 1458 1459 1459 1460 1461 1461 1462 1463 1463 1463 1464 1465 1466 1467 1468 1469 1470 1471 1471 1472 1472 1472 1472 1472 1471 1471 1470 1469 1468 1467 1466 1464 1463
1431 1433 1436 1438 1441 1443 1445 1447 1449 1451 1453 1454 1455 1456 1456 1457 1458 1459 1459 1460 1461 1462 1463 1464 1465 1466 1467 1468 1468 1469 1469 1469 1469 1469 1468 1468 1467 1466 1465 1464 1463 1462 1460
1425 1427 1429 1432 1434 1436 1438 1440 1443 1445 1447 1449 1450 1451 1452 1453 1454 1455 1456 1456 1457 1458 1460 1461 1462 1463 1464 1465 1466 1466 1467 1467 1466 1466 1465 1465 1464 1463 1462 1461 1460 1459 1458
1418 1421 1423 1425 1427 1429 1431 1434 1437 1439 1441 1443 1445 1446 1448 1449 1450 1451 1452 1453 1454 1455 1457 1458 1459 1461 1462 1462 1463 1464 1464 1464 1464 1463 1463 1462 1461 1461 1460 1459 1457 1456 1455
1412 1414 1416 1418 1420 1422 1425 1428 1430 1433 1435 1437 1439 1442 1444 1445 1447 1448 1449 1451 1452 1453 1454 1456 1457 1458 1459 1460 1460 1461 1461 1461 1461 1461 1460 1460 1459 1458 1457 1456 1455 1453 1452
1405 1407 1409 1411 1413 1416 1418 1421 1423 1426 1428 1431 1433 1436 1439 1441 1443 1444 1446 1448 1449 1450 1452 1453 1454 1455 1456 1457 1457 1458 1458 1458 1458 1458 1457 1457 1456 1455 1454 1453 1452 1450 1449
1398 1400 1402 1404 1406 1408 1411 1414 1416 1419 1422 1425 1428 1431 1434 1437 1439 1441 1443 1445 1446 1448 1449 1450 1451 1452 1453 1454 1455 1455 1456 1456 1455 1455 1454 1454 1453 1452 1451 1449 1448 1446 1445
1391 1392 1394 1396 1398 1401 1404 1407 1410 1413 1416 1419 1422 1426 1429 1433 1435 1437 1439 1442 1443 1445 1446 1448 1449 1450 1451 1451 1452 1452 1452 1452 1452 1451 1451 1450 1449 1448 1446 1445 1444 1442 1440
1384 1385 1387 1389 1392 1394 1398 1401 1404 1407 1410 1413 1416 1420 1424 1427 1430 1433 1436 1438 1440 1442 1443 1445 1446 1447 1448 1448 1448 1449 1449 1449 1448 1447 1446 1445 1444 1443 1441 1440 1438 1437 1435
1376 1377 1379 1382 1384 1387 1390 1394 1397 1401 1404 1407 1410 1415 1419 1423 1426 1429 1432 1434 1437 1439 1440 1442 1443 1444 1444 1445 1445 1445 1445 1445 1444 1443 1442 1440 1439 1437 1436 1434 1433 1431 1429
1369 1371 1373 1375 1377 1380 1383 1387 1391 1395 1398 1402 1405 1410 1414 1418 1422 1425 1428 1431 1433 1435 1437 1438 1439 1440 1440 1441 1441 1441 1440 1440 1439 1438 1437 1435 1433 1431 1430 1428 1426 1424 1422
1362 1363 1366 1368 1371 1373 1377 1381 1385 1389 1393 1397 1401 1405 1409 1413 1417 1421 1424 1427 1429 1431 1433 1435 1436 1436 1436 1436 1436 1436 1435 1435 1434 1432 1431 1429 1427 1425 1423 1421 1419 1417 1415